Regional Weather Roundup
Issued by NWS Cleveland, OH

Home | Current Version | Previous Version | Graphics & Text | Print | Product List | Glossary On
Versions: 1 2 3 4 5 6 7 8 9 10 11 12 13 14 15 16 17 18 19 20 21 22 23 24 25 26 27 28 29 30 31 32 33 34 35 36 37 38 39 40 41 42 43 44 45 46 47 48 49 50
000
ASUS41 KCLE 010910
RWRCLE
OHIO REGIONAL WEATHER ROUNDUP
NATIONAL WEATHER SERVICE CLEVELAND, OH
500 AM EDT WED JUL 01 2015

NOTE: "FAIR" INDICATES FEW OR NO CLOUDS BELOW 12,000 FEET WITH NO
SIGNIFICANT WEATHER AND/OR OBSTRUCTIONS TO VISIBILITY.

OHZ001>008-015>018-024>027-034-035-043-044-011000-
   NORTHWEST OHIO

CITY           SKY/WX    TMP DP  RH WIND       PRES   REMARKS
DEFIANCE       CLOUDY    61  58  90 NW7       29.86S
FINDLAY        CLOUDY    62  59  90 W9        29.84S
TOLEDO EXPRESS MOCLDY    61  59  93 W8        29.83R
TOLEDO EXEC    CLOUDY    62  59  90 W6        29.84R
LIMA           CLEAR     59  57  93 W7        29.86S
$$

OHZ009>014-019>023-028>033-038-089-011000-
   NORTHEAST OHIO

CITY           SKY/WX    TMP DP  RH WIND       PRES   REMARKS
CLE-HOPKINS    PTCLDY    62  60  93 SW8       29.82R
CLE-LAKEFRONT  CLOUDY    66  61  84 SW10      29.78S
CUY CO. ARPT   NOT AVBL
LORAIN-ELYRIA  MOCLDY    63  60  90 W7        29.82R
ASHTABULA      CLOUDY    63  62  97 SW10      29.79R
AKRON-CANTON   CLOUDY    64  60  87 SW9       29.83R FOG
WOOSTER        CLOUDY    62  60  93 W6        29.84S FOG
MANSFIELD      PTCLDY    61  59  93 W6        29.84S
YOUNGSTOWN     CLOUDY    63  61  93 SW9       29.81R FOG
$$

OHZ042-051>053-060>062-070>072-077>081-011000-
  SOUTHWEST OHIO

CITY           SKY/WX    TMP DP  RH WIND       PRES   REMARKS
CINC-COVINGTON PTCLDY    60  60 100 CALM      29.89S FOG
CINC-LUNKEN    FOG       58  58 100 CALM      29.90R VSB 1/2
HAMILTON       FOG       59  58  96 CALM      29.89S VSB 3/4
DAYTON         MOCLDY    64  60  87 W6        29.89R
WRIGHT-PAT AFB PTCLDY    61  61 100 SW5       29.88R
DAYTON GENERAL CLOUDY    62  61  96 CALM      29.88S FOG
WILMINGTON     CLEAR     62  60  93 W8        29.88S FOG
$$

OHZ036-037-039>041-045>050-054>059-063>069-073>076-082>088-011000-
  CENTRAL AND SOUTHEAST OHIO

CITY           SKY/WX    TMP DP  RH WIND       PRES   REMARKS
COLUMBUS       PTCLDY    59  59 100 CALM      29.86R FOG
OSU AIRPORT    CLEAR     61  59  93 W5        29.86S FOG
BOLTON FIELD   CLEAR     60  60  99 SW3       29.87S FOG
RICKENBACK AFB CLEAR     58  57  99 CALM      29.86S FOG
NEWARK         PTCLDY    60  58  92 S3        29.86R FOG
MARION         CLEAR     61  58  90 W6        29.86R FOG
LANCASTER      MOCLDY    62  60  93 VRB3      29.87R FOG
ZANESVILLE     NOT AVBL
NEW PHILLY     CLOUDY    62  60  93 CALM      29.85S FOG
$$


USA.gov is the U.S. government's official web portal to all federal, state and local government web resources and services.